This is the latest recevied weather packets stored in our database for station/object M0JUI-1. If no packets are shown the sender has not sent any weather packets the latest 10 day(s).
| Time | Temp. | Humidity | Pressure | Rain* | Wind** | Luminosity | Snow |
|---|---|---|---|---|---|---|---|
| 1788604882 | 18.33° C | 99% | 1023.6 hPa | 0 mm | - | 600 W/m² | - |
| 1788604581 | 17.78° C | 99% | 1023.8 hPa | 0 mm | - | 584 W/m² | - |
| 1788604281 | 17.78° C | 99% | 1023.7 hPa | 0 mm | - | 576 W/m² | - |
| 1788603969 | 17.78° C | 99% | 1023.8 hPa | 0 mm | - | 557 W/m² | - |
| 1788603669 | 17.78° C | 1% | 1023.7 hPa | 0 mm | - | 544 W/m² | - |
| 1788603369 | 16.67° C | 1% | 1023.9 hPa | 0 mm | - | 530 W/m² | - |
| 1788603069 | 16.11° C | 4% | 1023.9 hPa | 0 mm | - | 502 W/m² | - |
| 1788602770 | 16.67° C | 2% | 1023.8 hPa | 0 mm | - | 86 W/m² | - |
| 1788602469 | 17.22° C | 1% | 1023.8 hPa | 0 mm | - | 521 W/m² | - |
| 1788602169 | 16.11° C | 5% | 1023.7 hPa | 0 mm | - | 180 W/m² | - |
| 1788601869 | 16.11° C | 7% | 1023.6 hPa | 0 mm | - | 151 W/m² | - |
| 1788601569 | 16.67° C | 6% | 1023.5 hPa | 0 mm | - | 212 W/m² | - |
| 1788601269 | 16.11° C | 10% | 1023.7 hPa | 0 mm | - | 553 W/m² | - |
| 1788600969 | 16.11° C | 9% | 1023.5 hPa | 0 mm | - | 135 W/m² | - |
| 1788600669 | 16.67° C | 6% | 1023.4 hPa | 0 mm | - | 178 W/m² | - |
| 1788600369 | 16.67° C | 5% | 1023.4 hPa | 0 mm | - | 462 W/m² | - |
| 1788600069 | 16.67° C | 6% | 1023.5 hPa | 0 mm | - | 138 W/m² | - |
| 1788599773 | 16.67° C | 8% | 1023.1 hPa | 0 mm | - | 288 W/m² | - |
| 1788599469 | 16.67° C | 10% | 1023.1 hPa | 0 mm | - | 400 W/m² | - |
| 1788599169 | 16.11° C | 10% | 1023.1 hPa | 0 mm | - | 398 W/m² | - |
| 1788598870 | 16.11° C | 11% | 1023 hPa | 0 mm | - | 350 W/m² | - |
| 1788598569 | 15.56° C | 12% | 1022.9 hPa | 0 mm | - | 326 W/m² | - |
| 1788598270 | 15.56° C | 12% | 1022.9 hPa | 0 mm | - | 301 W/m² | - |
| 1788597970 | 15.56° C | 13% | 1022.9 hPa | 0 mm | - | 287 W/m² | - |
| 1788597669 | 15.56° C | 13% | 1023 hPa | 0 mm | - | 269 W/m² | - |
* Rain latest hour (hover to see other rain measurements)
** Current wind speed in m/s (hover to see current wind gust speed)